When you browse on this site, cookies collect data to enhance your experience and personalize the content and advertising you see.
Visit our Privacy Policy to learn more. By continuing to use the site, you agree to this use of cookies and data.
  • In France
  • List of Countries
  • For 7 days
  • Water Temperature
  • Satellite Maps
  • Weather Map
  • Weather Widgets
  • user-avatar
    Login

    Hourly Weather Wlora

    Today, 19 April, Friday

    Time Temperature Precipitation Wind Pressure Humidity
    00:00 +12°C° 0 mm 3 mps 767 mmHg 78%
    01:00 +12°C° 0 mm 3 mps 768 mmHg 77%
    02:00 +12°C° 0 mm 3 mps 768 mmHg 76%
    03:00 +12°C° 0 mm 3 mps 768 mmHg 76%
    04:00 +11°C° 0 mm 3 mps 768 mmHg 76%
    05:00 +13°C° 0 mm 2 mps 768 mmHg 74%
    06:00 +14°C° 0 mm 2 mps 768 mmHg 72%
    07:00 +15°C° 0 mm 2 mps 768 mmHg 71%
    08:00 +17°C° 0 mm 2 mps 769 mmHg 66%
    09:00 +18°C° 0 mm 2 mps 769 mmHg 61%
    10:00 +20°C° 0 mm 1 mps 769 mmHg 56%
    11:00 +19°C° 0 mm 2 mps 769 mmHg 56%
    12:00 +20°C° 0 mm 3 mps 769 mmHg 57%
    13:00 +20°C° 0 mm 4 mps 768 mmHg 57%
    14:00 +20°C° 0 mm 5 mps 768 mmHg 60%
    15:00 +19°C° 0 mm 5 mps 768 mmHg 62%
    16:00 +19°C° 0 mm 6 mps 768 mmHg 65%
    17:00 +16°C° 0 mm 6 mps 768 mmHg 71%
    18:00 +15°C° 0 mm 6 mps 768 mmHg 78%
    19:00 +14°C° 0 mm 6 mps 768 mmHg 85%
    20:00 +13°C° 0 mm 5 mps 768 mmHg 84%
    21:00 +13°C° 0 mm 5 mps 768 mmHg 83%
    22:00 +13°C° 0 mm 5 mps 768 mmHg 82%
    23:00 +13°C° 0 mm 4 mps 768 mmHg 81%

    Tomorrow, 20 April, Saturday

    Time Temperature Precipitation Wind Pressure Humidity
    00:00 +12°C° 0 mm 4 mps 768 mmHg 80%
    01:00 +12°C° 0 mm 4 mps 768 mmHg 79%
    02:00 +12°C° 0 mm 4 mps 768 mmHg 79%
    03:00 +12°C° 0 mm 4 mps 767 mmHg 78%
    04:00 +12°C° 0 mm 3 mps 767 mmHg 78%
    05:00 +13°C° 0 mm 3 mps 767 mmHg 76%
    06:00 +14°C° 0 mm 3 mps 767 mmHg 73%
    07:00 +16°C° 0 mm 3 mps 767 mmHg 71%
    08:00 +18°C° 0 mm 3 mps 767 mmHg 66%
    09:00 +19°C° 0 mm 4 mps 767 mmHg 60%
    10:00 +21°C° 0 mm 4 mps 767 mmHg 55%
    11:00 +21°C° 0 mm 4 mps 767 mmHg 56%
    12:00 +21°C° 0 mm 5 mps 767 mmHg 56%
    13:00 +21°C° 0 mm 6 mps 767 mmHg 56%
    14:00 +21°C° 0 mm 6 mps 766 mmHg 59%
    15:00 +20°C° 0 mm 6 mps 766 mmHg 61%
    16:00 +20°C° 0 mm 6 mps 766 mmHg 64%
    17:00 +19°C° 0 mm 5 mps 766 mmHg 69%
    18:00 +17°C° 0 mm 5 mps 766 mmHg 74%
    19:00 +17°C° 0 mm 4 mps 766 mmHg 79%
    20:00 +16°C° 0 mm 3 mps 767 mmHg 77%
    21:00 +16°C° 0 mm 3 mps 767 mmHg 76%
    22:00 +16°C° 0 mm 2 mps 767 mmHg 75%
    23:00 +16°C° 0 mm 3 mps 767 mmHg 76%

    Day after tomorrow, 21 April, Sunday

    Time Temperature Precipitation Wind Pressure Humidity
    00:00 +16°C° 0 mm 3 mps 767 mmHg 77%
    01:00 +15°C° 0 mm 4 mps 767 mmHg 77%
    02:00 +15°C° 0 mm 5 mps 767 mmHg 80%
    03:00 +15°C° 0 mm 6 mps 767 mmHg 82%
    04:00 +14°C° 0 mm 7 mps 767 mmHg 84%
    05:00 +14°C° 0 mm 7 mps 767 mmHg 85%
    06:00 +15°C° 0 mm 7 mps 767 mmHg 86%
    07:00 +15°C° 0 mm 7 mps 767 mmHg 87%
    08:00 +16°C° 0 mm 7 mps 767 mmHg 86%
    09:00 +16°C° 0 mm 7 mps 768 mmHg 85%
    10:00 +17°C° 0 mm 7 mps 768 mmHg 84%
    11:00 +17°C° 0.1 mm 7 mps 767 mmHg 86%
    12:00 +16°C° 0.1 mm 7 mps 767 mmHg 88%
    13:00 +16°C° 0.1 mm 6 mps 767 mmHg 90%
    14:00 +16°C° 0 mm 6 mps 767 mmHg 92%
    15:00 +15°C° 0 mm 6 mps 766 mmHg 94%
    16:00 +15°C° 0 mm 5 mps 766 mmHg 96%
    17:00 +15°C° 0 mm 5 mps 766 mmHg 96%
    18:00 +15°C° 0 mm 5 mps 766 mmHg 96%
    19:00 +15°C° 0 mm 5 mps 766 mmHg 97%
    20:00 +14°C° 0 mm 5 mps 766 mmHg 97%
    21:00 +14°C° 0 mm 4 mps 766 mmHg 97%
    22:00 +14°C° 0 mm 4 mps 766 mmHg 98%
    23:00 +14°C° 0 mm 4 mps 766 mmHg 97%

    22 April, Monday

    Time Temperature Precipitation Wind Pressure Humidity
    00:00 +14°C° 0 mm 4 mps 765 mmHg 97%
    01:00 +14°C° 0 mm 4 mps 765 mmHg 96%
    02:00 +14°C° 0 mm 4 mps 765 mmHg 96%
    03:00 +14°C° 0 mm 5 mps 764 mmHg 97%
    04:00 +14°C° 0 mm 5 mps 764 mmHg 97%
    05:00 +15°C° 0 mm 5 mps 764 mmHg 94%
    06:00 +15°C° 0 mm 6 mps 764 mmHg 91%
    07:00 +16°C° 0 mm 6 mps 764 mmHg 88%
    08:00 +17°C° 0 mm 7 mps 764 mmHg 79%
    09:00 +20°C° 0 mm 7 mps 764 mmHg 71%
    10:00 +22°C° 0 mm 7 mps 764 mmHg 62%
    11:00 +21°C° 0 mm 8 mps 763 mmHg 63%
    12:00 +21°C° 0 mm 9 mps 763 mmHg 63%
    13:00 +21°C° 0 mm 10 mps 763 mmHg 63%
    14:00 +19°C° 0.4 mm 11 mps 763 mmHg 71%
    15:00 +17°C° 0.4 mm 11 mps 762 mmHg 79%
    16:00 +15°C° 0.4 mm 12 mps 762 mmHg 88%
    17:00 +16°C° 0.2 mm 11 mps 762 mmHg 87%
    18:00 +16°C° 0.2 mm 10 mps 762 mmHg 86%
    19:00 +16°C° 0.2 mm 9 mps 761 mmHg 85%
    20:00 +16°C° 0 mm 8 mps 761 mmHg 85%
    21:00 +16°C° 0 mm 6 mps 761 mmHg 85%
    22:00 +16°C° 0 mm 5 mps 761 mmHg 84%
    23:00 +16°C° 0.1 mm 6 mps 761 mmHg 84%

    23 April, Tuesday

    Time Temperature Precipitation Wind Pressure Humidity
    00:00 +15°C° 0.1 mm 7 mps 761 mmHg 84%
    01:00 +15°C° 0.1 mm 8 mps 760 mmHg 84%
    02:00 +15°C° 0 mm 8 mps 760 mmHg 81%
    03:00 +15°C° 0 mm 8 mps 760 mmHg 78%
    04:00 +15°C° 0 mm 8 mps 760 mmHg 75%
    05:00 +16°C° 0.1 mm 9 mps 760 mmHg 73%
    06:00 +17°C° 0.1 mm 9 mps 760 mmHg 70%
    07:00 +18°C° 0.1 mm 10 mps 760 mmHg 68%
    08:00 +21°C° 0.1 mm 10 mps 760 mmHg 61%
    09:00 +22°C° 0.1 mm 11 mps 760 mmHg 54%
    10:00 +24°C° 0.1 mm 11 mps 760 mmHg 48%
    11:00 +24°C° 0 mm 12 mps 760 mmHg 48%
    12:00 +24°C° 0 mm 13 mps 760 mmHg 49%
    13:00 +23°C° 0 mm 14 mps 760 mmHg 50%
    14:00 +23°C° 0 mm 14 mps 760 mmHg 52%
    15:00 +22°C° 0 mm 14 mps 760 mmHg 54%
    16:00 +22°C° 0 mm 14 mps 760 mmHg 56%
    17:00 +20°C° 0 mm 13 mps 760 mmHg 60%
    18:00 +19°C° 0 mm 12 mps 761 mmHg 63%
    19:00 +18°C° 0 mm 12 mps 761 mmHg 67%
    20:00 +17°C° 0 mm 11 mps 761 mmHg 68%
    21:00 +17°C° 0 mm 11 mps 762 mmHg 70%
    22:00 +17°C° 0 mm 10 mps 763 mmHg 71%
    23:00 +16°C° 0 mm 10 mps 763 mmHg 71%

    24 April, Wednesday

    Time Temperature Precipitation Wind Pressure Humidity
    00:00 +16°C° 0 mm 9 mps 763 mmHg 71%
    01:00 +16°C° 0 mm 9 mps 763 mmHg 71%
    02:00 +16°C° 0 mm 8 mps 763 mmHg 70%
    03:00 +16°C° 0 mm 8 mps 763 mmHg 70%
    04:00 +16°C° 0 mm 8 mps 763 mmHg 69%
    05:00 +17°C° 0 mm 7 mps 763 mmHg 68%
    06:00 +19°C° 0 mm 6 mps 763 mmHg 66%
    07:00 +20°C° 0 mm 6 mps 763 mmHg 65%
    08:00 +21°C° 0 mm 5 mps 763 mmHg 61%
    09:00 +23°C° 0 mm 5 mps 763 mmHg 57%
    10:00 +25°C° 0 mm 4 mps 764 mmHg 53%
    11:00 +25°C° 0 mm 4 mps 763 mmHg 53%
    12:00 +26°C° 0 mm 4 mps 763 mmHg 53%
    13:00 +26°C° 0 mm 4 mps 763 mmHg 52%
    14:00 +25°C° 0 mm 4 mps 763 mmHg 55%
    15:00 +25°C° 0 mm 3 mps 763 mmHg 57%
    16:00 +24°C° 0 mm 3 mps 762 mmHg 59%
    17:00 +23°C° 0 mm 2 mps 763 mmHg 66%
    18:00 +20°C° 0 mm 2 mps 763 mmHg 72%
    19:00 +20°C° 0 mm 1 mps 763 mmHg 78%
    20:00 +18°C° 0 mm 2 mps 764 mmHg 80%
    21:00 +18°C° 0 mm 2 mps 764 mmHg 81%
    22:00 +18°C° 0 mm 3 mps 764 mmHg 82%
    23:00 +18°C° 0 mm 2 mps 764 mmHg 81%
    Show more